User: anonymous
Location: Caltech
(34.1382°N, 118.1253°W)
Time: 00:02:04
(UTC-07:00)
Language:

OAO 1 Rocket - Orbit

View from above orbital plane
View from above orbital plane
View from above satellite
View from above satellite

Ground track
Ground track

The orbit data is extracted from the following two-line orbital elements,

1 02144U 66031B   14210.37140068  .00000153  00000-0  51857-4 0  6822
2 02144 035.0418 275.6522 0008003 058.6894 301.4579 14.42136053535869
Epoch (UTC): 29 July 2014 08:54:49
Eccentricity: 0.0008003
inclination: 35.0418°
perigee height: 746 km
apogee height: 757 km
right ascension of ascending node: 275.6522°
argument of perigee: 58.6894°
revolutions per day: 14.42136053
mean anomaly at epoch: 301.4579°
orbit number at epoch: 53586

The dashed part of the orbit path shows where the satellite is in the earth's shadow,  

DLR